Location: Dana
(41.8364°N, 106.7042°W)
Time: 14:38:33
(UTC+00:00)

Vanguard 3 - Pass Details

Date: 12 May 2026
Orbit: 507 x 3204 km, 33.3° (Epoch: 8 June)

Event Time Altitude Azimuth Distance (km) Brightness Sun altitude
Rises 18:14:12 0° 190° (S) 6,326 12.0 64.2°
Reaches altitude 10° 18:19:51 10° 176° (S) 5,671 12.0 64.7°
Maximum altitude 18:31:33 21° 135° (SE) 5,177 12.0 65.5°
Drops below altitude 10° 18:43:46 10° 95° (E) 6,027 11.8 66.1°
Sets 18:49:55 0° 82° (E) 6,829 11.9 66.3°
